• în România
  • Lista ţărilor
  • Pe 7 zile
  • Temperatura apei
  • Hartă satelitară
  • Meteo pe hartă
  • Widget-uri
  • user-avatar
    Intrare

    Meteo pe oră la Ali Bayramli

    Astăzi, 24 Noiembrie, Vineri

    Timp Temperatura Precipitaţii Vânt Presiune Umiditate
    00:00 +7°C° 0 mm 3 m/s 760 mmHg 59%
    01:00 +7°C° 0 mm 3 m/s 760 mmHg 57%
    02:00 +7°C° 0 mm 3 m/s 761 mmHg 54%
    03:00 +7°C° 0 mm 3 m/s 761 mmHg 52%
    04:00 +7°C° 0 mm 3 m/s 761 mmHg 52%
    05:00 +5°C° 0 mm 3 m/s 762 mmHg 52%
    06:00 +5°C° 0 mm 3 m/s 762 mmHg 52%
    07:00 +7°C° 0 mm 3 m/s 762 mmHg 49%
    08:00 +6°C° 0 mm 4 m/s 762 mmHg 47%
    09:00 +7°C° 0 mm 4 m/s 762 mmHg 44%
    10:00 +7°C° 0 mm 4 m/s 762 mmHg 40%
    11:00 +8°C° 0 mm 4 m/s 762 mmHg 37%
    12:00 +10°C° 0 mm 3 m/s 762 mmHg 34%
    13:00 +10°C° 0 mm 3 m/s 762 mmHg 31%
    14:00 +10°C° 0 mm 3 m/s 762 mmHg 29%
    15:00 +10°C° 0 mm 3 m/s 762 mmHg 27%
    16:00 +10°C° 0 mm 3 m/s 763 mmHg 28%
    17:00 +9°C° 0 mm 3 m/s 763 mmHg 29%
    18:00 +9°C° 0 mm 3 m/s 763 mmHg 31%
    19:00 +8°C° 0 mm 3 m/s 763 mmHg 32%
    20:00 +8°C° 0 mm 3 m/s 764 mmHg 34%
    21:00 +7°C° 0 mm 3 m/s 764 mmHg 36%
    22:00 +6°C° 0 mm 4 m/s 764 mmHg 36%
    23:00 +5°C° 0 mm 4 m/s 764 mmHg 36%

    Mâine, 25 Noiembrie, Sâmbătă

    Timp Temperatura Precipitaţii Vânt Presiune Umiditate
    00:00 +5°C° 0 mm 4 m/s 764 mmHg 37%
    01:00 +5°C° 0 mm 4 m/s 764 mmHg 36%
    02:00 +4°C° 0 mm 3 m/s 764 mmHg 36%
    03:00 +4°C° 0 mm 3 m/s 764 mmHg 35%
    04:00 +4°C° 0 mm 3 m/s 764 mmHg 35%
    05:00 +3°C° 0 mm 3 m/s 764 mmHg 35%
    06:00 +3°C° 0 mm 3 m/s 765 mmHg 34%
    07:00 +4°C° 0 mm 4 m/s 765 mmHg 33%
    08:00 +5°C° 0 mm 5 m/s 766 mmHg 32%
    09:00 +5°C° 0 mm 6 m/s 766 mmHg 31%
    10:00 +6°C° 0 mm 7 m/s 766 mmHg 30%
    11:00 +7°C° 0 mm 8 m/s 766 mmHg 29%
    12:00 +10°C° 0 mm 9 m/s 766 mmHg 27%
    13:00 +10°C° 0 mm 9 m/s 767 mmHg 27%
    14:00 +10°C° 0 mm 8 m/s 767 mmHg 27%
    15:00 +10°C° 0 mm 8 m/s 767 mmHg 27%
    16:00 +9°C° 0 mm 7 m/s 768 mmHg 32%
    17:00 +8°C° 0 mm 5 m/s 769 mmHg 38%
    18:00 +7°C° 0 mm 4 m/s 770 mmHg 43%
    19:00 +6°C° 0 mm 4 m/s 770 mmHg 46%
    20:00 +6°C° 0 mm 4 m/s 771 mmHg 50%
    21:00 +6°C° 0 mm 4 m/s 771 mmHg 53%
    22:00 +5°C° 0 mm 3 m/s 771 mmHg 56%
    23:00 +5°C° 0 mm 3 m/s 771 mmHg 60%

    Poimâine, 26 Noiembrie, Duminică

    Timp Temperatura Precipitaţii Vânt Presiune Umiditate
    00:00 +5°C° 0 mm 3 m/s 771 mmHg 63%
    01:00 +5°C° 0 mm 2 m/s 771 mmHg 64%
    02:00 +5°C° 0 mm 2 m/s 771 mmHg 66%
    03:00 +5°C° 0 mm 2 m/s 771 mmHg 67%
    04:00 +5°C° 0 mm 2 m/s 771 mmHg 65%
    05:00 +5°C° 0 mm 2 m/s 770 mmHg 63%
    06:00 +5°C° 0 mm 2 m/s 770 mmHg 61%
    07:00 +5°C° 0 mm 2 m/s 770 mmHg 59%
    08:00 +5°C° 0 mm 3 m/s 770 mmHg 57%
    09:00 +7°C° 0 mm 3 m/s 770 mmHg 55%
    10:00 +8°C° 0 mm 3 m/s 770 mmHg 56%
    11:00 +8°C° 0 mm 3 m/s 769 mmHg 56%
    12:00 +9°C° 0 mm 3 m/s 768 mmHg 56%
    13:00 +9°C° 0 mm 3 m/s 768 mmHg 55%
    14:00 +10°C° 0 mm 3 m/s 767 mmHg 54%
    15:00 +10°C° 0 mm 3 m/s 767 mmHg 54%
    16:00 +9°C° 0 mm 3 m/s 767 mmHg 54%
    17:00 +8°C° 0 mm 3 m/s 767 mmHg 55%
    18:00 +8°C° 0 mm 2 m/s 767 mmHg 56%
    19:00 +7°C° 0 mm 3 m/s 767 mmHg 54%
    20:00 +7°C° 0 mm 3 m/s 767 mmHg 53%
    21:00 +7°C° 0 mm 3 m/s 767 mmHg 52%
    22:00 +5°C° 0 mm 3 m/s 766 mmHg 50%
    23:00 +5°C° 0 mm 3 m/s 766 mmHg 48%

    27 Noiembrie, Luni

    Timp Temperatura Precipitaţii Vânt Presiune Umiditate
    00:00 +5°C° 0 mm 3 m/s 766 mmHg 47%
    01:00 +5°C° 0 mm 3 m/s 765 mmHg 45%
    02:00 +4°C° 0 mm 3 m/s 765 mmHg 44%
    03:00 +4°C° 0 mm 3 m/s 765 mmHg 42%
    04:00 +4°C° 0 mm 3 m/s 765 mmHg 41%
    05:00 +4°C° 0 mm 3 m/s 764 mmHg 40%
    06:00 +3°C° 0 mm 3 m/s 764 mmHg 39%
    07:00 +4°C° 0 mm 3 m/s 764 mmHg 37%
    08:00 +5°C° 0 mm 3 m/s 764 mmHg 34%
    09:00 +7°C° 0 mm 3 m/s 764 mmHg 31%
    10:00 +8°C° 0 mm 3 m/s 764 mmHg 29%
    11:00 +9°C° 0 mm 3 m/s 763 mmHg 26%
    12:00 +11°C° 0 mm 3 m/s 763 mmHg 23%
    13:00 +11°C° 0 mm 3 m/s 763 mmHg 23%
    14:00 +12°C° 0 mm 2 m/s 762 mmHg 23%
    15:00 +12°C° 0 mm 2 m/s 762 mmHg 23%
    16:00 +11°C° 0 mm 1 m/s 762 mmHg 26%
    17:00 +10°C° 0 mm 1 m/s 762 mmHg 28%
    18:00 +9°C° 0 mm 1 m/s 763 mmHg 31%
    19:00 +9°C° 0 mm 1 m/s 763 mmHg 31%
    20:00 +9°C° 0 mm 1 m/s 763 mmHg 31%
    21:00 +9°C° 0 mm 1 m/s 763 mmHg 31%
    22:00 +9°C° 0 mm 1 m/s 762 mmHg 31%
    23:00 +7°C° 0 mm 2 m/s 762 mmHg 31%

    28 Noiembrie, Marţi

    Timp Temperatura Precipitaţii Vânt Presiune Umiditate
    00:00 +7°C° 0 mm 2 m/s 762 mmHg 31%
    01:00 +7°C° 0 mm 2 m/s 762 mmHg 32%
    02:00 +7°C° 0 mm 2 m/s 762 mmHg 32%
    03:00 +7°C° 0 mm 2 m/s 761 mmHg 33%
    04:00 +7°C° 0 mm 2 m/s 762 mmHg 34%
    05:00 +7°C° 0 mm 2 m/s 762 mmHg 34%
    06:00 +6°C° 0 mm 2 m/s 762 mmHg 35%
    07:00 +7°C° 0 mm 2 m/s 762 mmHg 33%
    08:00 +8°C° 0 mm 2 m/s 762 mmHg 32%
    09:00 +9°C° 0 mm 2 m/s 762 mmHg 30%
    10:00 +10°C° 0 mm 2 m/s 761 mmHg 28%
    11:00 +12°C° 0 mm 2 m/s 761 mmHg 26%
    12:00 +13°C° 0 mm 2 m/s 761 mmHg 25%
    13:00 +14°C° 0 mm 2 m/s 760 mmHg 25%
    14:00 +14°C° 0 mm 2 m/s 760 mmHg 24%
    15:00 +14°C° 0 mm 1 m/s 760 mmHg 24%
    16:00 +13°C° 0 mm 1 m/s 760 mmHg 28%
    17:00 +12°C° 0 mm 1 m/s 760 mmHg 31%
    18:00 +10°C° 0 mm 0 m/s 761 mmHg 35%
    19:00 +10°C° 0 mm 1 m/s 761 mmHg 34%
    20:00 +10°C° 0 mm 1 m/s 760 mmHg 34%
    21:00 +10°C° 0 mm 1 m/s 760 mmHg 33%
    22:00 +9°C° 0 mm 2 m/s 760 mmHg 35%
    23:00 +9°C° 0 mm 2 m/s 760 mmHg 36%

    29 Noiembrie, Miercuri

    Timp Temperatura Precipitaţii Vânt Presiune Umiditate
    00:00 +9°C° 0 mm 3 m/s 760 mmHg 37%
    01:00 +8°C° 0 mm 3 m/s 759 mmHg 39%
    02:00 +8°C° 0 mm 3 m/s 759 mmHg 40%
    03:00 +8°C° 0 mm 3 m/s 759 mmHg 42%
    04:00 +8°C° 0 mm 3 m/s 759 mmHg 42%
    05:00 +7°C° 0 mm 3 m/s 759 mmHg 42%
    06:00 +7°C° 0 mm 3 m/s 759 mmHg 42%
    07:00 +8°C° 0 mm 3 m/s 760 mmHg 40%
    08:00 +9°C° 0 mm 3 m/s 760 mmHg 38%
    09:00 +10°C° 0 mm 3 m/s 760 mmHg 35%
    10:00 +11°C° 0 mm 3 m/s 760 mmHg 34%
    11:00 +13°C° 0 mm 2 m/s 759 mmHg 33%
    12:00 +15°C° 0 mm 2 m/s 759 mmHg 31%
    13:00 +15°C° 0 mm 2 m/s 759 mmHg 33%
    14:00 +15°C° 0 mm 2 m/s 759 mmHg 35%
    15:00 +15°C° 0 mm 2 m/s 759 mmHg 36%
    16:00 +13°C° 0 mm 3 m/s 759 mmHg 44%
    17:00 +12°C° 0 mm 3 m/s 760 mmHg 53%
    18:00 +11°C° 0 mm 4 m/s 760 mmHg 61%
    19:00 +10°C° 0 mm 4 m/s 760 mmHg 66%
    20:00 +10°C° 0 mm 4 m/s 760 mmHg 71%
    21:00 +8°C° 0 mm 4 m/s 761 mmHg 76%
    22:00 +8°C° 0 mm 4 m/s 761 mmHg 76%
    23:00 +8°C° 0 mm 4 m/s 761 mmHg 76%
    Arată mai mult